#timestamp,LO_Frequency,Hit 
1502629215.2,286046999.2,N
1502629235.1,286046998.8,N
1502629236.0,286046998.8,N
1502629255.8,286046998.4,N
1502629275.6,286047000.1,N
1502629295.5,286046999.7,N
1502629315.3,286046999.9,N
1502629335.2,286047000.0,N
1502629355.9,286047000.9,N
1502629375.7,286046998.5,N
1502629395.6,286046998.5,N
1502629415.4,286046999.9,N
1502629435.2,286047000.6,N
1502629455.1,286047000.2,N
1502629456.0,286047000.2,N
1502629475.8,286047000.5,N
1502629495.7,286046999.9,N
1502629515.5,286047000.0,N
1502629535.3,286047002.8,N
1502629555.2,286047001.5,N
1502629575.0,286047002.2,N
1502629575.9,286047002.2,N
1502629595.8,286047000.2,N
1502629615.6,286046999.8,N
1502629635.4,286047001.0,N
1502629655.3,286047000.8,N
1502629675.1,286046998.9,N
1502629695.9,286047000.8,N
1502629715.7,286046998.2,N
1502629735.5,286047000.9,N
1502629755.4,286046999.9,N
1502629775.2,286047002.0,N
1502629795.0,286047000.1,N
1502629795.9,286047000.1,N
1502629815.8,286047000.3,N
1502629835.6,286047000.4,N
1502629855.5,286047000.4,N
1502629875.3,286047001.2,N
1502629895.1,286046998.1,N
1502629915.9,286047000.8,N
1502629935.7,286046998.8,N
1502629955.5,286046998.4,N
1502629975.4,286047000.3,N
1502629995.2,286046999.9,N
1502630015.1,286046999.9,N
1502630016.0,286046999.9,N
1502630035.8,286046998.3,N
1502630055.6,286046998.4,N
1502630075.5,286046998.4,N
1502630095.3,286046998.4,N
1502630115.2,286046999.2,N
1502630135.9,286046998.8,N
1502630155.7,286046998.4,N
1502630175.6,286046999.5,N
1502630195.4,286046996.5,P
1502630215.2,286046999.1,N
1502630235.1,286046997.0,N
1502630236.0,286046997.0,N
1502630255.8,286046998.8,N
1502630275.7,286046998.4,N
1502630295.5,286046998.9,N
1502630315.3,286046998.3,N
1502630335.2,286046998.4,N
1502630355.0,286046998.8,N
1502630355.9,286046998.8,N
1502630375.8,286046998.9,N
1502630395.6,286047001.2,N
1502630415.4,286046998.7,N
1502630435.3,286046998.3,N
1502630455.1,286046998.8,N
1502630475.9,286046999.6,N
1502630495.7,286046997.7,N
1502630515.5,286046997.8,N
1502630535.4,286046997.1,N
1502630555.2,286046999.1,N
1502630575.0,286046996.5,P
1502630576.0,286046996.5,P
1502630595.8,286046998.1,N
1502630615.6,286046999.4,N
1502630635.5,286046999.1,N
1502630655.3,286046996.6,N
1502630675.1,286046996.6,N
1502630695.9,286046999.4,N
1502630715.7,286046999.1,N
1502630735.6,286046998.9,N
1502630755.4,286046999.0,N
1502630775.2,286046999.2,N
1502630795.1,286046999.1,N
1502630796.0,286046999.1,N
1502630815.8,286046998.2,N
1502630835.6,286046999.3,N
1502630855.5,286046998.7,N
1502630875.3,286046998.1,N
1502630895.2,286046997.0,N
1502630915.9,286046997.1,N
1502630935.7,286046996.8,P
1502630955.6,286046998.7,N
1502630975.4,286046999.0,N
1502630995.3,286046998.6,N
1502631015.1,286047000.7,N
1502631016.0,286047000.7,N
1502631035.8,286046999.7,N
1502631055.7,286047002.0,N
1502631075.5,286047002.3,N
1502631095.3,286047004.2,N
1502631115.2,286047001.8,N
1502631135.0,286047001.3,N
1502631135.9,286047001.3,N
1502631155.8,286047002.4,N
1502631175.6,286047003.9,N
1502631195.4,286047002.5,N
1502631215.3,286046999.9,N
1502631235.1,286047000.9,N
1502631255.8,286047000.0,N
1502631275.7,286047000.9,N
1502631295.5,286047000.6,N
1502631315.4,286047000.5,N
1502631335.2,286047000.7,N
1502631355.0,286047000.9,N
1502631355.9,286047000.9,N
1502631375.8,286046999.9,N
1502631395.6,286047000.9,N
1502631415.4,286046999.8,N
1502631435.3,286047002.8,N
1502631455.1,286047001.0,N
1502631475.9,286047002.1,N
1502631495.7,286046999.9,N
1502631515.5,286046999.7,N
1502631535.4,286047000.7,N
1502631555.2,286047000.0,N
1502631575.1,286047001.2,N
1502631576.0,286047001.2,N
1502631595.8,286047000.7,N
1502631615.6,286047000.8,N
1502631635.5,286047000.8,N
1502631655.3,286047000.6,N
1502631675.1,286047001.2,N
1502631695.9,286047000.6,N
1502631715.7,286047000.9,N
1502631735.6,286046998.2,N
1502631755.4,286046998.3,N
1502631775.2,286046998.8,N
1502631795.1,286046998.8,N
1502631796.0,286046998.8,N
1502631815.8,286046998.2,N
1502631835.7,286046998.8,N
1502631855.5,286046996.8,N
1502631875.3,286046999.3,N
1502631895.2,286047000.6,N
1502631915.9,286047001.1,N
1502631935.7,286047001.1,N
1502631955.6,286047000.5,N
1502631975.4,286047000.9,N
1502631995.3,286047000.6,N
1502632015.1,286047000.2,N
1502632016.0,286047000.2,N
1502632035.8,286047000.4,N
1502632055.7,286047000.6,N
1502632075.5,286047000.4,N
1502632095.4,286047001.1,N
1502632115.2,286047001.1,N
1502632135.0,286047000.6,N
1502632135.9,286047000.6,N
1502632155.8,286047002.5,N
1502632175.6,286047002.0,N
1502632195.4,286047001.6,N
1502632215.3,286047001.8,N
1502632235.1,286047004.2,P
1502632255.9,286047004.3,N
1502632275.7,286047004.0,N
1502632295.5,286047002.8,N
1502632315.4,286047000.2,N
1502632335.2,286047002.5,N
1502632355.1,286047002.5,N
1502632356.0,286047002.5,N
1502632375.8,286047002.3,N
1502632395.6,286047001.8,N
1502632415.5,286047004.4,P
1502632435.3,286046998.8,N
1502632455.1,286046998.9,N
1502632475.9,286046999.4,N
1502632495.7,286046996.5,N
1502632515.6,286046997.3,N
1502632535.4,286046996.6,N
1502632555.2,286046999.5,N
1502632575.1,286046999.3,N
1502632576.0,286046999.3,N
1502632595.8,286046999.2,N
1502632615.7,286046999.3,N
1502632635.5,286046998.1,N
1502632655.3,286047000.3,N
1502632675.2,286046998.2,N
1502632695.0,286047000.8,N
1502632695.9,286047000.8,N
1502632715.7,286047001.0,N
1502632735.6,286046998.1,N
1502632755.4,286046998.6,N
1502632775.3,286047000.4,N
1502632795.1,286047000.6,N
1502632796.0,286047000.6,N
